Flag for U.S.A. Weather past 2 weeks in Germantown, Maryland, U.S.A.

Now
32 °F

Overcast.


Feels Like: 24 °F
Forecast: 21 / 37 °F
Wind: 9 mph from South

Location: Frederick Municipal Airport

Current Time: Mar 3, 2015 at 5:39:28 PM

Latest Report: Mar 3, 2015 at 4:45 PM


Visibility: 10 mi

Pressure: 30.11 "Hg

Humidity: 60%

Dew point: 19 °F

Location of GermantownLocation

Historic Weather in Germantown — Graph

°F

Germantown temperature yesterday

Maximum temperature yesterday: 41 °F (at 8:56 AM)
Minimum temperature yesterday: 28 °F (at 11:15 PM)
Average temperature yesterday: 34 °F

Past Weeks' High & Low Weather Summary

 TemperatureHumidityPressure
High46 °F (Feb 16, 4:47 PM)100% (Feb 22, 1:50 PM)30.89 "Hg (Feb 22, 1:50 PM)
Low0 °F (Feb 24, 5:25 AM)11% (Feb 28, 2:48 PM)29.73 "Hg (Feb 18, 3:55 PM)
Average23 °F57%30.26 "Hg
* Reported Feb 16 3:47 PM — Mar 3 3:47 PM, Germantown, Weather by CustomWeather, © 2015

Note: Actual official high and low records may vary slightly from our data, if they occured in-between our weather recording intervals... More about our weather records

Advertising

Germantown weather history for previous 24 hours

 ConditionsComfort  
Time TempWeatherWind HumidityBarometerVisibility
3:47 PM
Tue, Mar 3
34 °FOvercast.10 mph51%30.15 "Hg10 mi
2:47 PM34 °FOvercast.9 mph51%30.20 "Hg10 mi
1:45 PM34 °FOvercast.7 mph51%30.25 "Hg10 mi
12:50 PM34 °FOvercast.8 mph41%30.30 "Hg10 mi
11:52 AM34 °FBroken clouds.10 mph38%30.35 "Hg10 mi
10:47 AM32 °FMostly cloudy.8 mph40%30.39 "Hg10 mi
9:45 AM30 °FScattered clouds.No wind47%30.43 "Hg10 mi
8:49 AM28 °FPartly sunny.3 mph59%30.46 "Hg10 mi
7:50 AM27 °FPartly sunny.3 mph64%30.46 "Hg10 mi
6:52 AM27 °FSunny.No wind69%30.45 "Hg10 mi
5:25 AM27 °FClear.No wind69%30.45 "Hg10 mi
5:15 AM27 °FClear.No wind69%30.44 "Hg10 mi
4:55 AM27 °FPassing clouds.No wind69%30.43 "Hg10 mi
4:35 AM23 °FClear.No wind80%30.42 "Hg10 mi
4:15 AM23 °FClear.No wind80%30.42 "Hg10 mi
3:55 AM23 °FClear.No wind80%30.42 "Hg10 mi
3:35 AM23 °FClear.3 mph80%30.43 "Hg10 mi
3:15 AM23 °FClear.No wind74%30.44 "Hg10 mi
2:55 AM23 °FClear.No wind74%30.44 "Hg10 mi
2:35 AM25 °FClear.No wind69%30.44 "Hg10 mi
2:15 AM23 °FClear.5 mph68%30.44 "Hg10 mi
1:55 AM23 °FClear.No wind74%30.44 "Hg10 mi
1:35 AM23 °FClear.No wind68%30.44 "Hg10 mi
1:15 AM25 °FClear.No wind63%30.44 "Hg10 mi
12:55 AM27 °FClear.No wind54%30.45 "Hg10 mi
12:35 AM27 °FClear.5 mph59%30.45 "Hg10 mi
12:15 AM28 °FClear.No wind51%30.45 "Hg10 mi
11:55 PM
Mon, Mar 2
28 °FClear.No wind51%30.45 "Hg10 mi
11:35 PM28 °FClear.No wind51%30.45 "Hg10 mi
11:15 PM28 °FClear.5 mph47%30.46 "Hg10 mi
10:55 PM32 °FClear.3 mph40%30.46 "Hg10 mi
10:35 PM30 °FClear.8 mph43%30.45 "Hg10 mi
9:55 PM32 °FClear.No wind40%30.45 "Hg10 mi
9:35 PM30 °FClear.3 mph47%30.45 "Hg10 mi
9:15 PM30 °FClear.6 mph47%30.45 "Hg10 mi
8:55 PM32 °FClear.5 mph40%30.45 "Hg10 mi
8:15 PM32 °FClear.3 mph47%30.44 "Hg10 mi
7:55 PM32 °FClear.5 mph44%30.43 "Hg10 mi
7:45 PM34 °FClear.6 mph38%30.43 "Hg10 mi
6:45 PM36 °FClear.8 mph100%30.41 "Hg10 mi
5:50 PM37 °FSunny.8 mph33%30.39 "Hg10 mi
Weather by CustomWeather, © 2015

See weather overviewHow to use our weather pages